DW3219 Weather Reports


Display with metric or nautical units.
time (UTC)temp
F
wind
direction
speed
MPH
gust
MPH
rain 1hr
in
rain 24hr
in
rain mn
in
humidity
%
barometer
mb
20260502163021 61 143 0.0 0.0 0.00 0.00 0.00 30 1015.9
20260502161513 60 145 0.0 4.0 0.00 0.00 0.00 30 1016.1
20260502151511 56 276 0.0 2.0 0.00 0.00 0.00 34 1016.5
20260502123045 36 277 0.0 0.0 0.00 0.00 0.00 65 1016.9
20260502121519 35 277 0.0 0.0 0.00 0.00 0.00 65 1016.8
20260502114601 37 275 0.0 0.0 0.00 0.00 0.00 61 1016.7
20260502113058 37 275 0.0 0.0 0.00 0.00 0.00 60 1016.6
20260502111551 36 276 0.0 0.0 0.00 0.00 0.00 60 1016.6
20260502110047 37 276 0.0 0.0 0.00 0.00 0.00 60 1016.7
20260502104545 36 278 0.0 0.0 0.00 0.00 0.00 61 1016.7
20260502103042 37 258 0.0 2.0 0.00 0.00 0.00 60 1016.6
20260502101544 38 257 0.0 0.0 0.00 0.00 0.00 60 1016.5
20260502071506 43 263 0.0 0.0 0.00 0.00 0.00 52 1016.9
20260502070051 44 263 0.0 0.0 0.00 0.00 0.00 50 1016.9
20260502064550 45 263 0.0 0.0 0.00 0.00 0.00 48 1016.8
20260502063101 46 263 0.0 0.0 0.00 0.00 0.00 46 1016.6
20260502061549 46 263 0.0 0.0 0.00 0.00 0.00 45 1016.7
20260502060042 47 263 0.0 0.0 0.00 0.00 0.00 44 1016.5
20260502054540 47 263 0.0 0.0 0.00 0.00 0.00 42 1016.4
20260502053050 48 264 0.0 0.0 0.00 0.00 0.00 40 1016.4
20260502051536 49 264 0.0 1.0 0.00 0.00 0.00 41 1016.3
20260502050019 50 159 0.0 0.0 0.00 0.00 0.00 39 1016.3
20260502044516 50 154 0.0 0.0 0.00 0.00 0.00 37 1016.1
20260502043017 52 154 0.0 0.0 0.00 0.00 0.00 37 1016.1
20260502041516 53 154 0.0 0.0 0.00 0.00 0.00 35 1016.0
20260502040006 55 154 0.0 0.0 0.00 0.00 0.00 32 1016.0
20260502034501 57 153 0.0 0.0 0.00 0.00 0.00 31 1015.8
20260502033058 58 154 0.0 0.0 0.00 0.00 0.00 29 1015.8
20260502031555 59 153 0.0 0.0 0.00 0.00 0.00 29 1015.7
20260502030034 61 154 0.0 0.0 0.00 0.00 0.00 25 1015.6
20260502024531 63 153 0.0 0.0 0.00 0.00 0.00 25 1015.4
20260502023014 65 153 0.0 0.0 0.00 0.00 0.00 22 1015.2
20260502021510 66 153 0.0 0.0 0.00 0.00 0.00 21 1015.2
20260502020007 67 153 0.0 0.0 0.00 0.00 0.00 21 1015.1
20260502014506 67 154 0.0 2.0 0.00 0.00 0.00 20 1015.1
20260502013006 68 155 0.0 3.0 0.00 0.00 0.00 20 1015.0
20260502011505 69 161 0.0 0.0 0.00 0.00 0.00 19 1015.1
20260502010003 69 164 0.0 5.0 0.00 0.00 0.00 17 1015.2
20260502004506 69 159 0.0 2.0 0.00 0.00 0.00 17 1015.2
20260502003050 69 141 0.0 4.0 0.00 0.00 0.00 17 1015.4
20260502001549 69 130 0.0 3.0 0.00 0.00 0.00 18 1015.5
20260502000057 69 105 0.0 0.0 0.00 0.00 0.00 17 1015.5
20260501234547 69 192 0.0 4.0 0.00 0.00 0.00 17 1015.6
20260501233047 70 181 0.0 3.0 0.00 0.00 0.00 17 1015.6
20260501231557 70 355 0.0 3.0 0.00 0.00 0.00 18 1015.6
20260501230046 69 121 0.0 5.0 0.00 0.00 0.00 18 1015.7
20260501224547 69 105 1.0 9.0 0.00 0.00 0.00 18 1015.8
20260501223026 68 171 0.0 8.0 0.00 0.00 0.00 19 1015.9
20260501221524 68 140 0.0 6.0 0.00 0.00 0.00 21 1016.2
20260501220022 68 221 0.0 2.0 0.00 0.00 0.00 20 1016.4
20260501214520 68 152 2.0 8.0 0.00 0.00 0.00 21 1016.6
20260501213019 68 177 1.0 9.0 0.00 0.00 0.00 21 1016.8
20260501211516 67 157 0.0 2.0 0.00 0.00 0.00 21 1017.0
20260501210013 67 143 0.0 5.0 0.00 0.00 0.00 22 1017.2
20260501204512 66 115 0.0 1.0 0.00 0.00 0.00 21 1017.4
20260501203100 67 83 0.0 9.0 0.00 0.00 0.00 22 1017.5
20260501201557 66 121 0.0 3.0 0.00 0.00 0.00 22 1017.7
20260501200055 65 262 0.0 1.0 0.00 0.00 0.00 22 1017.9
20260501194559 65 13 0.0 3.0 0.00 0.00 0.00 24 1018.1
20260501193050 64 231 0.0 1.0 0.00 0.00 0.00 24 1018.2
20260501191548 63 71 0.0 3.0 0.00 0.00 0.00 25 1018.4
20260501190046 63 244 0.0 8.0 0.00 0.00 0.00 24 1018.4
20260501184543 62 289 0.0 1.0 0.00 0.00 0.00 25 1018.6
20260501183030 62 317 0.0 5.0 0.00 0.00 0.00 26 1018.9
20260501181530 61 338 0.0 4.0 0.00 0.00 0.00 26 1019.2
20260501180028 61 242 0.0 1.0 0.00 0.00 0.00 27 1019.3
20260501174525 60 239 0.0 0.0 0.00 0.00 0.00 27 1019.5
20260501173025 59 248 0.0 0.0 0.00 0.00 0.00 29 1019.5